Location: Kershaw
(34.5481°N, 80.5823°W)
Time: 02:23:44
(UTC+00:00)

Explorer 7 - Pass Details

Date: 03 October 2022
Orbit: 481 x 665 km, 50.3° (Epoch: 01 December)

Event Time Altitude Azimuth Distance (km) Brightness Sun altitude
Rises 17:57:54 0° 294° (WNW) 2,997 10.5 49.8°
Reaches altitude 10° 18:01:39 10° 323° (NW) 2,068 9.6 49.5°
Maximum altitude 18:03:45 13° 349° (N) 1,879 9.3 49.4°
Drops below altitude 10° 18:05:50 10° 16° (NNE) 2,037 9.4 49.2°
Sets 18:09:28 0° 45° (NE) 2,908 10.1 48.9°
